Location: Lake Arresoe
(56.0000°N, 12.5000°E)
Time: 15:23:44
(UTC+02:00)

Cosmos 2058 - Pass Details

Date: 28 July 2021
Orbit: 560 x 584 km, 82.5° (Epoch: 21 September)

Event Time Altitude Azimuth Distance (km) Brightness Sun altitude
Rises 23:17:35 0° 247° (WSW) 2,799 6.5 -11.1°
Reaches altitude 10° 23:20:46 10° 273° (W) 1,909 6.0 -11.3°
Maximum altitude 23:22:59 14° 305° (NW) 1,673 6.3 -11.5°
Drops below altitude 10° 23:25:13 10° 337° (NNW) 1,919 7.1 -11.6°
Sets 23:28:26 0° 3° (N) 2,826 7.6 -11.8°
